{"data":{"norad_id":46702,"epoch":"2026-05-24T21:58:34.421952Z","epoch_age_seconds":85410,"freshness":"FRESH","line1":"1 46702U 20073AJ  26144.91567618  .00039458  00000+0  10958-2 0  9994","line2":"2 46702  53.1570 221.4147 0004021 339.7304  20.3539 15.36525193309171","mean_motion":15.36525193,"eccentricity":0.0004021,"inclination_deg":53.157,"raan_deg":221.4147,"arg_perigee_deg":339.7304,"mean_anomaly_deg":20.3539,"bstar":0.0010958,"rev_number":30917,"period_min":93.717955719845,"perigee_km":453.64583535417,"apogee_km":459.14216518458,"semimajor_km":6834.5310002694,"source":"CELESTRAK","updated_at":"2026-05-25T13:38:16.516404Z"}}